Home   Weather   Whitstable   Past weeks

Flag for United Kingdom Past Weather in Whitstable, England, United Kingdom — Yesterday and Last 2 Weeks

Now
27 °F

Smoke.


Feels Like: 23 °F
Forecast: 27 / 38 °F
Wind: 3 mph from West

Location: Manston

Current Time: Jan 18, 2017 at 8:31:40 am

Latest Report: Jan 18, 2017 at 7:00 am


Visibility: 4 mi

Pressure: 30.68 "Hg

Humidity: 87%

Dew Point: 24 °F

Location of WhitstableLocation

Past Weather in Whitstable — Graph

°F

Whitstable Temperature Yesterday

Maximum temperature yesterday: 36 °F (at 11:00 am)
Minimum temperature yesterday: 29 °F (at 9:00 pm)
Average temperature yesterday: 33 °F

High & Low Weather Summary for the Past Weeks

 TemperatureHumidityPressure
High50 °F (Jan 9, 1:00 pm)100% (Jan 7, 7:00 am)30.69 "Hg (Jan 7, 7:00 am)
Low27 °F (Jan 18, 7:00 am)61% (Jan 11, 3:00 pm)29.21 "Hg (Jan 12, 7:00 pm)
Average40 °F88%30.21 "Hg
* Reported Jan 3 7:00 am — Jan 18 7:00 am, Whitstable, Weather by CustomWeather, © 2017

Note: Actual official high and low records may vary slightly from our data, if they occured in-between our weather recording intervals... More about our weather records

Advertising

Whitstable Weather History for the Previous 24 Hours

Scroll right to see more
 ConditionsComfort  
Time TempWeatherWind HumidityBarometerVisibility
7:00 am
Wed, Jan 18
27 °FSmoke.3 mph87%30.68 "Hg4 mi
6:00 am27 °FSmoke.1 mph90%30.66 "Hg5 mi
5:00 am29 °FSmoke.5 mph83%30.67 "Hg6 mi
4:00 am30 °FSmoke.3 mph84%30.68 "Hg6 mi
3:00 am29 °FSmoke.5 mph84%30.69 "Hg6 mi
2:00 am29 °FSmoke.3 mph83%30.68 "Hg5 mi
1:00 am30 °FSmoke.3 mph85%30.68 "Hg6 mi
12:00 am30 °FSmoke.6 mph86%30.68 "Hg5 mi
11:00 pm
Tue, Jan 17
29 °FSmoke.6 mph86%30.68 "Hg6 mi
10:00 pm31 °FSmoke.7 mph88%30.68 "Hg5 mi
9:00 pm29 °FSmoke.7 mph90%30.67 "Hg4 mi
8:00 pm30 °FSmoke.7 mph84%30.68 "Hg5 mi
7:00 pm31 °FSmoke.6 mph90%30.66 "Hg4 mi
6:00 pm30 °FSmoke.7 mph93%30.65 "Hg3 mi
5:00 pm30 °FSmoke.7 mph92%30.65 "Hg4 mi
4:00 pm33 °FSmoke.6 mph87%30.64 "Hg4 mi
3:00 pm35 °FSmoke.8 mph79%30.64 "Hg4 mi
2:00 pm35 °FSmoke.9 mph86%30.63 "Hg2 mi
1:00 pm36 °FSmoke.8 mph87%30.63 "Hg2 mi
12:00 pm36 °FSmoke.9 mph87%30.63 "Hg2 mi
11:00 am36 °FSmoke.9 mph83%30.64 "Hg3 mi
10:00 am35 °FSmoke.7 mph84%30.63 "Hg3 mi
9:00 am34 °FSmoke.6 mph88%30.61 "Hg3 mi
8:00 am32 °FSmoke.6 mph92%30.60 "Hg4 mi
Weather by CustomWeather, © 2017

See weather overviewHow to use our weather pages